ZF1RC George Town KY current weather conditions

sailwx.info

Wind from 056 at 0 knots gusting 0

Air temperature 26.1° C
Dewpoint 23.4° C

Last reported at 2014-Jul-31 06:50 UTC.
Time now 2014-Jul-31 07:25 UTC

Location: N 19°16' W 081°23'.
View on Google Maps.

See reports from other nearby stations

  
Tides and Currents Weather Stations Pressure Air Temp Water Temp Dewpoint Dewpoint Depression Visibility Wind Speed Wind Dir Waves Ship Positions
date/time (UTC)wind fromknots sea level pressurealtimeterstation pressurevisibilityair tempwater tempwave heightnotes
2014-Jul-31 06:50 056 0 gusting 0 26.1
2014-Jul-31 06:40 051 0 gusting 0 26.1
2014-Jul-31 06:30 043 0 gusting 1 26.1
2014-Jul-31 06:20 049 0 gusting 1 26.1
2014-Jul-31 06:10 072 0 gusting 1 26.1
2014-Jul-31 06:00 072 0 gusting 1 26.1
2014-Jul-31 05:50 085 1 gusting 1 26.1
2014-Jul-31 04:50 082 0 gusting 0 26.7
2014-Jul-31 04:40 081 0 gusting 0 26.7
2014-Jul-31 04:30 090 26.7
2014-Jul-31 04:20 087 0 gusting 0 26.7
2014-Jul-31 04:10 085 0 gusting 0 26.7
2014-Jul-31 04:00 090 0 gusting 0 26.7
2014-Jul-31 03:50 076 0 gusting 0 26.7
2014-Jul-31 03:40 102 26.7
2014-Jul-31 03:30 103 27.2
2014-Jul-31 03:20 098 0 gusting 0 27.2
2014-Jul-31 03:10 100 0 gusting 0 27.2
2014-Jul-31 03:00 097 27.2
2014-Jul-31 02:40 077 0 gusting 0 27.8
2014-Jul-31 02:30 082 27.8
2014-Jul-31 02:20 096 0 gusting 0 27.8
2014-Jul-31 02:10 085 1 gusting 1 27.8
2014-Jul-31 02:00 105 0 gusting 1 28.3
2014-Jul-31 01:50 077 2 gusting 2 27.8
2014-Jul-31 01:40 083 1 gusting 2 28.3
2014-Jul-31 01:30 110 1 gusting 4 28.3
2014-Jul-31 01:20 086 1 gusting 4 28.3
2014-Jul-31 01:10 085 1 gusting 2 28.3
2014-Jul-31 01:00 078 2 gusting 2 28.9
2014-Jul-31 00:50 097 1 gusting 1 28.9
2014-Jul-31 00:40 089 1 gusting 4 28.9
2014-Jul-31 00:30 089 2 gusting 4 28.9
2014-Jul-31 00:20 056 4 gusting 5 28.9
2014-Jul-31 00:10 051 2 gusting 4 29.4
2014-Jul-31 00:00 048 2 gusting 5 29.4
2014-Jul-30 23:50 098 0 gusting 4 29.4
2014-Jul-30 23:40 067 2 gusting 2 29.4
2014-Jul-30 23:30 041 4 gusting 5 30.0
2014-Jul-30 23:20 108 3 gusting 6 30.0
2014-Jul-30 23:10 085 4 gusting 6 30.0
2014-Jul-30 23:00 096 4 gusting 6 30.6
2014-Jul-30 22:54 079 6 gusting 6 30.6
2014-Jul-30 22:50 026 4 gusting 6 30.6
2014-Jul-30 22:40 054 3 gusting 6 30.6
2014-Jul-30 22:30 083 5 gusting 7 30.6
2014-Jul-30 22:20 047 6 gusting 7 31.1
2014-Jul-30 22:10 010 6 gusting 8 31.1
2014-Jul-30 22:00 042 3 gusting 6 31.1
2014-Jul-30 21:50 091 2 gusting 6 31.1
2014-Jul-30 21:40 060 5 gusting 6 31.1
2014-Jul-29 13:50 067 30.6
2014-Jul-29 13:40 148 0 gusting 1 30.6
2014-Jul-29 13:30 105 1 gusting 2 30.6
2014-Jul-29 13:20 134 0 gusting 4 30.6
2014-Jul-29 13:10 118 2 gusting 4 30.0
2014-Jul-29 13:00 107 1 gusting 2 29.4
2014-Jul-29 12:50 087 1 gusting 4 29.4
2014-Jul-29 12:40 054 1 gusting 2 28.9
2014-Jul-29 12:30 085 1 gusting 2 28.3
2014-Jul-29 12:20 075 1 gusting 1 27.8
2014-Jul-29 12:10 065 0 gusting 1 27.2
2014-Jul-29 12:00 104 1 gusting 2 27.2
2014-Jul-29 11:50 052 0 gusting 1 26.7
2014-Jul-29 11:40 101 1 gusting 1 26.1
2014-Jul-29 11:30 092 1 gusting 1 26.1
2014-Jul-29 11:20 094 1 gusting 1 26.1
2014-Jul-29 11:10 105 1 gusting 1 26.1
2014-Jul-29 11:00 104 2 gusting 2 26.1
2014-Jul-29 10:50 100 0 gusting 1 26.1
2014-Jul-29 10:40 085 1 gusting 1 26.1
2014-Jul-29 10:30 098 0 gusting 1 26.1
2014-Jul-29 10:20 105 0 gusting 1 26.1
2014-Jul-29 10:10 091 1 gusting 1 26.1
2014-Jul-29 10:00 084 1 gusting 1 26.1
2014-Jul-29 09:50 089 0 gusting 1 26.1
2014-Jul-29 09:40 100 0 gusting 1 26.1
2014-Jul-29 09:30 079 1 gusting 1 26.1
2014-Jul-29 09:20 077 0 gusting 2 26.1
2014-Jul-29 09:10 089 1 gusting 1 26.1
2014-Jul-29 09:00 098 0 gusting 1 26.1
2014-Jul-29 08:50 094 0 gusting 1 26.1
2014-Jul-29 08:40 100 0 gusting 1 26.1
2014-Jul-29 08:30 099 0 gusting 1 26.1
2014-Jul-29 08:20 103 1 gusting 1 26.1
2014-Jul-29 08:10 100 1 gusting 1 26.1
2014-Jul-29 08:00 093 0 gusting 0 26.1
2014-Jul-29 07:50 100 0 gusting 0 26.1
2014-Jul-29 07:40 058 0 gusting 0 26.1
2014-Jul-29 07:30 044 0 gusting 0 26.1
2014-Jul-29 07:20 073 26.7
2014-Jul-29 07:10 099 1 gusting 1 26.7
2014-Jul-29 07:00 085 1 gusting 2 26.7